Weather in Cuenca

Spain     40°04′11″N   2°08′15″W
temp.,
°C
wind,
m/s
gust,
m/s
humid.,
%
clouds,
%
prec.,
mm/h
press.,
hPa
HPBL,
m
19 september, sun
sun1923:00+16nnw511390 0.0 1017408
02:00+13n39440 0.0 1018241
05:00+12nne23540 0.0 101949
08:00+10nne22550 0.0 102017
11:00+17nne34345 0.0 1021573
14:00+21nw22210 0.0 10191368
17:00+23nw43195 0.0 10181636
20:00+19nw22280 0.0 101819
20 september, mon
mon2023:00+16n22380 0.0 102014
02:00+14ene11420 0.0 102011
05:00+13e11450 0.0 102010
08:00+12ene11475 0.0 102010
11:00+18n11330 0.0 1019399
14:00+22w33260 0.0 10172008
17:00+23w44244 0.0 10152861
20:00+18nnw69486 0.0 1016360
21 september, tue
tue2123:00+13nne6106884 0.5 1020532
02:00+12ene4668100 1.5 1020370
05:00+10n34841 0.9 1019126
08:00+10ne1277100 0.9 1019135
11:00+12e3568100 0.3 1020381
14:00+12e5671100 1.1 1020437
17:00+15e676587 0.6 1018835
20:00+14ene5870100 0.8 1017572
22 september, wed
wed2223:00+12ese51284100 1.8 1020557
02:00+13ese51372100 3.1 1018649
05:00+13e61376100 0.1 1017541
08:00+13ese41077100 0.2 1017406
11:00+16ese466157 0.0 1018657
14:00+21ese56448 0.0 10161769
17:00+23ese65388 0.0 10142222
20:00+18ese59566 0.0 1016491
23 september, thu
thu2323:00+14se498059 0.0 1018405
02:00+13ene2679100 0.0 1018184
05:00+15e3974100 0.0 1017450
08:00+15e4974100 0.0 1016405
11:00+18ese6867100 0.1 1017736
14:00+22ese6754100 0.1 10151416
17:00+21ese6759100 0.1 10141153
20:00+17ese6981100 0.3 1015631